Venice, Italy

3:27 AM CEST on April 25, 2018 (GMT +0200)
Tessera

Weather History for LIPZ - June, 2013

Change the Weather History Date:

Saturday, June 15, 2013

  Actual Average Record
Temperature  
Mean Temperature 74 °F -  
Max Temperature 84 °F 80 °F 87 °F (2003)
Min Temperature 64 °F 62 °F 51 °F (2008)
Cooling Degree Days 9    
Growing Degree Days 24 (Base 50)    
Moisture  
Dew Point 61 °F    
Average Humidity 64    
Maximum Humidity 88    
Minimum Humidity 37    
Precipitation  
Precipitation 0.00 in 0.09 in - ()
Sea Level Pressure  
Sea Level Pressure 29.97 in    
Wind  
Wind Speed 3 mph ()    
Max Wind Speed 8 mph    
Max Gust Speed -    
Visibility 5.5 miles    
Events      
Averages and records for this station are not official NWS values.
T = Trace of Precipitation, MM = Missing Value Source: Averaged Metar Reports

Daily Weather History Graph

Daily Weather History Graph

Search for Another Location

Airport or City:

Astronomy

Jun. 15, 2013 Rise Set
Actual Time 5:21 AM CEST 9:01 PM CEST
Civil Twilight 4:43 AM CEST 9:39 PM CEST
Nautical Twilight 3:52 AM CEST 10:29 PM CEST
Astronomical Twilight 2:44 AM CEST 11:38 PM CEST
Moon 11:56 AM CEST (6/15) 12:12 AM CEST (6/15)
Length of Visible Light 16h 55m
Length of Day
15h 39m
Waxing Crescent, 37% of the Moon is Illuminated
Jun 15
Waxing Crescent
Jun 16
First Quarter
Jun 23
Full
Jun 30
Last Quarter
Jul 8
New

Hourly Weather History & Observations

Time (CEST) Temp. Heat Index Dew Point Humidity Pressure Visibility Wind Dir Wind Speed Gust Speed Precip Events Conditions
12:20 AM 73.4 °F - 60.8 °F 65% 29.98 in - Variable 2.3 mph - N/A   Clear
12:50 AM 73.4 °F - 64.4 °F 73% 29.98 in - Variable 1.2 mph - N/A   Clear
1:20 AM 68.0 °F - 62.6 °F 83% 29.98 in - Variable 2.3 mph - N/A   Clear
1:50 AM 69.8 °F - 62.6 °F 78% 29.98 in - Variable 2.3 mph - N/A   Clear
2:20 AM 68.0 °F - 62.6 °F 83% 29.98 in - Calm Calm - N/A   Clear
2:50 AM 68.0 °F - 62.6 °F 83% 29.98 in - Calm Calm - N/A   Clear
3:20 AM 68.0 °F - 60.8 °F 78% 29.95 in - Variable 1.2 mph - N/A   Clear
3:50 AM 66.2 °F - 62.6 °F 88% 29.95 in - Variable 1.2 mph - N/A   Clear
4:20 AM 68.0 °F - 62.6 °F 83% 29.95 in - Variable 1.2 mph - N/A   Clear
4:50 AM 66.2 °F - 60.8 °F 83% 29.95 in - Variable 2.3 mph - N/A   Clear
5:20 AM 68.0 °F - 60.8 °F 78% 29.95 in - Variable 2.3 mph - N/A   Clear
5:50 AM 66.2 °F - 60.8 °F 83% 29.95 in 5.0 mi Variable 2.3 mph - N/A   Unknown
6:20 AM 64.4 °F - 59.0 °F 83% 29.98 in 5.6 mi Variable 3.5 mph - N/A   Unknown
6:50 AM 66.2 °F - 60.8 °F 83% 29.95 in 5.6 mi Variable 2.3 mph - N/A   Unknown
7:20 AM 68.0 °F - 62.6 °F 83% 29.98 in 5.6 mi Variable 2.3 mph - N/A   Unknown
7:50 AM 69.8 °F - 64.4 °F 83% 29.98 in 5.6 mi Variable 2.3 mph - N/A   Unknown
8:20 AM 71.6 °F - 64.4 °F 78% 29.98 in 5.6 mi Calm Calm - N/A   Unknown
8:50 AM 73.4 °F - 64.4 °F 73% 29.98 in 5.0 mi Calm Calm - N/A   Unknown
9:20 AM 77.0 °F - 66.2 °F 69% 29.98 in 5.0 mi Variable 1.2 mph - N/A   Unknown
9:50 AM 78.8 °F - 66.2 °F 65% 29.98 in 5.0 mi Variable 1.2 mph - N/A   Unknown
10:20 AM 78.8 °F - 66.2 °F 65% 29.98 in 5.0 mi Variable 1.2 mph - N/A   Unknown
10:50 AM 78.8 °F - 64.4 °F 61% 29.98 in 5.0 mi Variable 2.3 mph - N/A   Unknown
11:20 AM 80.6 °F 81.8 °F 62.6 °F 54% 29.98 in 5.0 mi Variable 2.3 mph - N/A   Unknown
11:50 AM 80.6 °F 80.8 °F 57.2 °F 45% 29.98 in - Variable 3.5 mph - N/A   Clear
12:20 PM 82.4 °F 81.4 °F 53.6 °F 37% 29.98 in - Variable 3.5 mph - N/A   Clear
12:50 PM 82.4 °F 81.7 °F 55.4 °F 39% 29.98 in - Variable 3.5 mph - N/A   Clear
1:20 PM 82.4 °F 83.4 °F 62.6 °F 51% 29.98 in - SSE 5.8 mph - N/A   Clear
1:50 PM 82.4 °F 82.0 °F 57.2 °F 42% 29.98 in - SE 4.6 mph - N/A   Clear
2:20 PM 84.2 °F 83.5 °F 57.2 °F 40% 29.98 in - West 5.8 mph - N/A   Clear
2:50 PM 82.4 °F 82.0 °F 57.2 °F 42% 29.98 in - SSE 5.8 mph - N/A   Clear
3:20 PM 82.4 °F 81.4 °F 53.6 °F 37% 29.98 in - SSE 6.9 mph - N/A   Clear
3:50 PM 82.4 °F 81.7 °F 55.4 °F 39% 29.95 in - SE 6.9 mph - N/A   Clear
4:20 PM 84.2 °F 83.5 °F 57.2 °F 40% 29.95 in - SE 8.1 mph - N/A   Clear
4:50 PM 82.4 °F 81.7 °F 55.4 °F 39% 29.95 in - SSE 6.9 mph - N/A   Clear
5:20 PM 82.4 °F 81.4 °F 53.6 °F 37% 29.95 in - SSE 5.8 mph - N/A   Clear
5:50 PM 80.6 °F 81.1 °F 59.0 °F 48% 29.95 in - SE 8.1 mph - N/A   Clear
6:20 PM 80.6 °F 81.1 °F 59.0 °F 48% 29.95 in - SE 6.9 mph - N/A   Clear
6:50 PM 78.8 °F - 59.0 °F 51% 29.95 in - SE 5.8 mph - N/A   Clear
7:20 PM 78.8 °F - 60.8 °F 54% 29.95 in - ESE 4.6 mph - N/A   Clear
7:50 PM 78.8 °F - 60.8 °F 54% 29.95 in - SSE 4.6 mph - N/A   Clear
8:20 PM 78.8 °F - 60.8 °F 54% 29.95 in - SSE 4.6 mph - N/A   Clear
8:50 PM 77.0 °F - 64.4 °F 65% 29.95 in - SSE 4.6 mph - N/A   Clear
9:20 PM 77.0 °F - 64.4 °F 65% 29.95 in 6.2 mi Variable 2.3 mph - N/A   Partly Cloudy
9:50 PM 77.0 °F - 64.4 °F 65% 29.95 in 6.2 mi Variable 3.5 mph - N/A   Partly Cloudy
10:20 PM 75.2 °F - 66.2 °F 73% 29.95 in 6.2 mi SSE 4.6 mph - N/A   Partly Cloudy
10:50 PM 77.0 °F - 68.0 °F 74% 29.95 in 6.2 mi SSE 4.6 mph - N/A   Partly Cloudy
11:20 PM 75.2 °F - 68.0 °F 78% 29.98 in - Calm Calm - N/A   Clear
11:50 PM 75.2 °F - 68.0 °F 78% 29.95 in - SE 4.6 mph - N/A   Clear